Wind_Speed
11 10 7 1 1 0 2 3 2 4 4 4 16 3 8 6 2 3 21 16 16 17 14 12 11 9 9 10 10 9 10 11 11 12 11 12 11 11 11 9 10 10 9 9 9 7 5 5 6
11 10 3 2 2 1 2 3 7 4 8 21 16 10 6 4 6 17 19 20 16 17 15 13 11 9 10 11 11 11 11 10 10 12 12 11 10 10 10 9 10 11 10 9 7 5 4 4 4
12 6 2 2 1 2 2 4 6 15 14 7 6 10 4 3 11 21 23 20 17 15 15 13 10 11 11 12 11 11 11 11 13 13 12 12 11 11 11 10 10 10 9 8 6 4 2 2 3
7 3 3 2 5 2 3 8 13 12 11 7 15 8 7 7 15 16 21 18 16 14 13 12 12 13 12 12 11 11 12 12 12 12 12 12 12 12 11 10 8 7 6 6 3 2 0 4 5
2 2 3 3 5 3 6 12 16 5 7 9 3 4 6 15 13 18 20 17 15 14 12 12 12 12 12 12 12 13 12 12 12 11 11 11 10 9 8 7 5 5 5 4 1 0 3 5 5
2 2 4 3 5 5 3 13 12 6 8 10 10 9 6 15 17 18 17 15 14 12 13 12 13 12 11 12 12 12 11 11 12 11 11 10 8 7 7 4 4 3 3 1 1 2 4 6 7
1 3 4 3 3 2 5 13 6 8 8 3 19 5 9 20 19 17 16 15 14 12 11 12 12 12 13 13 12 12 12 12 9 7 7 6 7 5 5 5 4 4 4 2 2 2 4 4 7
1 2 0 3 1 1 6 4 7 9 5 15 15 7 9 27 22 19 17 15 15 13 11 12 14 14 14 14 14 12 11 9 7 5 4 4 5 4 4 4 4 4 4 4 5 6 6 6 7
2 3 2 4 7 4 9 5 5 7 17 6 11 15 22 31 25 22 18 16 16 15 14 14 14 14 13 14 14 13 10 12 11 11 9 9 7 6 6 6 7 7 7 7 5 8 9 10 12
2 1 5 6 6 3 13 12 12 5 11 4 10 10 35 31 27 23 20 18 18 16 16 16 16 15 15 14 11 10 10 13 13 12 10 9 9 7 8 7 6 8 9 10 10 9 8 8 11
4 4 5 4 12 12 11 9 10 13 4 11 25 28 38 32 27 24 19 15 15 17 17 18 19 17 15 13 13 11 11 11 11 12 13 12 11 10 10 9 9 8 8 9 8 8 7 6 7
4 15 9 6 7 8 10 11 5 13 4 13 22 31 37 34 31 26 22 17 19 19 19 21 20 17 13 13 13 11 11 11 11 10 10 11 11 11 11 11 12 10 9 7 6 6 6 5 5
3 5 17 14 12 7 9 5 1 8 0 10 23 34 35 32 29 24 20 18 22 20 21 23 19 17 13 13 10 8 9 10 10 12 9 10 11 11 9 10 8 8 8 9 8 6 6 4 2
3 5 2 12 11 9 7 2 7 2 8 17 25 35 35 33 28 26 23 20 21 21 24 22 19 16 14 12 11 8 9 11 12 12 12 9 6 6 6 8 8 8 7 5 6 3 3 2 2
4 4 7 11 7 4 13 2 3 10 16 25 28 30 33 31 27 25 24 21 23 22 25 21 18 15 13 14 12 9 9 10 14 11 9 8 7 7 6 7 6 10 10 4 1 4 5 4 3
4 4 4 2 4 7 8 6 3 18 25 25 28 28 30 29 27 25 24 22 22 25 25 20 18 15 14 14 12 10 9 11 11 8 7 6 4 3 4 6 7 10 9 9 2 4 7 8 5
6 3 2 1 7 7 5 5 7 22 25 24 26 30 34 30 29 27 26 25 23 25 24 20 19 16 13 14 12 10 9 9 10 10 9 4 4 3 4 6 7 8 9 9 5 4 7 7 3
3 2 1 3 2 3 5 3 5 18 21 25 28 29 36 36 35 32 29 26 24 24 22 19 18 16 15 13 13 12 9 9 10 9 6 4 2 2 5 6 7 7 9 10 6 5 6 6 2
4 2 3 3 5 5 6 5 13 22 17 19 24 28 31 40 35 34 32 30 27 27 25 21 21 19 18 16 17 15 11 10 9 7 4 4 1 2 5 4 6 6 7 9 6 6 3 3 4
3 1 5 5 4 5 4 10 8 16 23 33 32 30 33 34 35 35 35 32 30 29 28 25 23 22 20 21 18 16 13 10 10 6 3 2 1 3 2 5 5 4 7 8 7 4 1 5 3
3 4 3 5 4 2 3 6 4 10 16 22 24 32 35 41 41 41 39 38 34 32 27 28 25 24 22 25 23 20 17 13 11 9 4 2 2 2 3 7 10 6 5 6 7 5 3 3 7
5 7 3 4 3 3 3 5 5 7 17 15 24 30 33 38 43 45 44 41 38 33 29 30 25 23 24 26 27 24 20 16 12 7 5 4 2 1 1 3 6 9 7 7 8 7 5 1 3
9 4 5 3 4 2 3 0 7 5 5 14 26 34 37 43 45 48 48 45 39 31 34 32 27 25 24 28 29 26 24 20 15 10 9 5 4 3 4 5 6 9 9 8 7 7 7 5 0
4 3 6 5 4 1 7 6 7 5 9 9 24 35 39 42 46 48 48 45 40 32 36 35 31 26 25 30 30 27 26 23 19 15 11 7 8 7 6 7 9 7 9 7 8 6 6 5 3
6 6 2 3 1 5 2 5 13 8 11 11 18 36 42 43 44 45 49 48 43 40 39 38 35 31 29 29 32 30 28 25 21 18 13 9 9 8 7 8 10 7 8 8 9 7 6 6 5
6 9 6 6 3 4 3 6 7 10 17 15 21 36 39 42 46 48 51 51 48 44 42 42 39 35 32 31 30 32 30 28 24 20 17 12 12 11 10 9 8 6 7 8 9 9 6 7 6
4 4 6 5 1 2 4 7 9 9 9 5 9 21 31 39 43 49 50 49 51 48 48 46 42 38 35 32 32 31 31 31 29 24 21 19 15 14 14 12 8 8 8 9 10 10 7 7 7
8 8 3 3 6 5 5 5 6 7 7 2 5 17 29 36 37 40 49 50 50 51 47 48 45 41 38 35 32 32 31 30 30 28 26 24 21 18 15 12 11 12 12 10 10 10 10 9 9
2 3 5 5 5 6 2 8 7 10 11 8 8 25 31 38 41 43 48 51 51 49 50 48 48 46 42 39 35 33 32 32 30 30 29 28 25 23 20 17 16 15 15 13 12 11 12 11 11
5 10 10 6 6 3 3 13 5 9 5 7 16 26 29 35 37 39 41 44 49 51 51 51 51 48 47 42 39 35 32 31 34 32 31 28 28 27 24 22 22 20 18 16 14 14 14 14 13
Wind_Direction
130 126 131 104 117 162 71 58 38 100 108 132 161 170 126 63 60 177 141 145 152 158 154 149 144 140 130 124 121 120 113 115 115 112 110 107 115 118 116 116 122 118 119 122 122 113 109 110 100
129 133 77 24 43 40 71 77 93 70 114 118 86 83 45 70 101 137 145 146 147 149 148 143 140 140 133 127 120 115 115 114 112 112 111 103 108 111 120 123 120 119 116 119 125 119 116 99 79
128 102 32 36 289 49 97 116 112 126 123 124 103 83 75 74 129 137 145 146 148 147 145 140 147 143 132 128 124 121 117 115 113 112 112 112 107 109 113 119 122 118 119 115 103 109 109 38 16
134 131 47 56 349 350 97 136 136 133 89 89 116 80 77 128 130 142 148 146 148 147 145 146 139 133 130 128 126 125 124 117 112 108 111 109 108 108 115 126 135 125 116 102 115 129 52 354 353
165 205 68 32 329 313 89 130 145 138 99 110 94 99 82 147 132 143 144 144 145 142 142 137 137 132 128 124 127 128 125 119 112 111 110 108 109 110 115 119 123 117 107 111 117 41 15 360 344
301 261 56 15 317 1 78 138 139 88 102 127 107 104 127 152 147 145 140 141 142 140 136 131 137 134 132 131 134 128 123 115 111 109 105 98 97 100 105 106 97 94 79 63 273 332 18 13 350
40 81 146 190 319 22 135 143 135 125 132 136 141 91 140 155 155 144 142 145 141 141 136 136 144 136 131 131 131 125 118 109 112 111 106 98 99 106 109 100 87 81 74 39 334 356 32 35 350
30 96 223 149 212 240 157 109 169 139 110 145 146 155 168 162 159 147 146 149 144 144 140 139 144 136 135 133 130 123 116 105 108 130 136 136 113 106 93 76 90 86 67 57 65 73 71 61 16
312 53 284 191 171 203 154 140 137 139 136 144 177 164 169 160 161 157 152 155 151 148 146 144 147 139 136 133 128 116 107 103 97 108 108 115 107 96 90 106 110 58 66 69 68 76 90 75 63
139 315 224 172 178 159 165 163 144 130 146 123 152 154 160 161 165 162 159 159 156 152 150 147 147 141 134 132 128 119 116 103 97 100 103 103 108 101 110 100 100 83 71 75 68 70 83 79 70
182 220 268 239 153 122 154 148 152 134 195 184 159 157 162 164 169 167 160 154 155 154 155 150 145 140 130 124 122 112 119 111 102 97 104 105 103 99 89 83 87 86 74 65 62 53 56 76 82
192 238 248 296 201 149 153 163 166 159 195 208 189 170 166 170 171 170 166 160 156 155 154 150 146 140 136 131 115 112 115 110 112 108 108 99 96 97 87 84 83 80 70 53 55 56 49 67 83
250 264 230 221 193 154 129 108 247 175 206 170 171 172 173 175 174 175 168 161 163 159 162 154 148 141 130 125 130 128 116 117 106 112 102 101 96 94 76 76 76 53 42 48 50 73 68 60 58
190 319 89 192 152 143 121 98 171 104 161 155 170 171 178 181 179 179 181 175 170 167 165 161 154 147 138 131 122 121 117 114 102 116 102 96 93 84 81 83 69 50 28 18 37 43 20 30 18
12 64 53 110 138 113 122 7 206 172 165 156 162 172 182 187 185 183 180 181 174 171 167 165 160 159 148 143 133 120 110 121 110 112 102 87 95 96 69 69 37 18 19 35 251 334 338 320 327
49 31 71 240 141 150 124 264 124 165 160 157 164 173 186 191 192 188 180 178 174 172 173 170 167 168 161 156 149 136 119 114 119 115 119 110 106 78 63 31 23 22 31 24 354 318 320 313 264
7 144 72 84 226 153 169 214 180 170 165 162 172 176 187 193 194 196 189 184 178 178 177 176 173 175 161 167 168 158 149 128 122 118 131 116 79 56 21 10 21 19 16 18 29 355 343 348 211
169 72 342 186 246 166 221 256 167 174 173 175 178 184 189 195 196 192 190 190 189 193 191 186 180 184 179 187 184 178 163 158 133 126 125 150 95 18 359 13 8 19 9 20 55 32 17 31 113
139 133 252 258 205 164 226 211 187 186 186 185 189 189 196 198 198 200 204 208 206 205 204 206 197 193 194 191 193 190 179 170 158 144 119 133 117 335 324 327 2 12 15 22 48 53 55 74 87
122 159 275 291 216 167 212 257 187 181 198 195 192 193 199 204 199 201 203 204 207 210 215 217 211 204 203 202 203 201 190 187 179 164 137 111 77 34 50 41 26 19 14 15 27 38 113 209 169
148 173 225 237 360 264 113 294 179 210 219 210 208 202 199 202 201 198 197 202 205 212 216 213 209 210 212 202 207 206 200 200 196 185 165 124 124 126 87 44 40 29 17 19 22 18 24 222 230
236 215 198 255 69 233 133 275 262 189 210 206 205 205 204 204 203 204 199 203 205 211 216 207 203 208 201 202 204 207 207 207 209 205 190 175 141 118 277 357 11 18 16 13 12 20 26 345 228
228 178 219 207 209 38 201 76 272 108 195 220 211 208 205 207 205 203 203 202 206 210 203 203 201 203 204 204 203 210 214 219 219 211 209 212 212 249 279 315 336 347 6 16 15 12 12 12 1
116 108 40 51 100 258 228 167 273 194 207 225 214 211 206 203 206 207 205 204 204 206 202 201 202 203 204 205 206 210 216 218 222 218 222 232 221 251 272 312 310 319 348 358 5 7 6 10 0
105 85 319 327 347 219 180 160 241 264 242 221 197 207 205 200 201 202 205 205 202 203 202 203 204 206 206 210 213 215 215 218 222 225 226 234 230 241 266 291 319 302 326 347 355 349 350 354 358
170 150 155 196 209 261 139 218 253 236 272 264 230 215 199 195 199 201 206 205 205 206 205 207 208 209 210 212 216 216 217 220 228 230 229 235 235 241 253 277 299 289 315 332 344 345 331 336 334
187 143 188 118 26 16 250 283 301 275 276 312 256 199 191 193 196 199 206 208 207 207 210 210 212 215 214 213 217 219 220 224 228 231 234 236 239 244 254 268 274 292 304 311 329 335 319 315 321
159 169 90 357 173 251 277 267 238 304 295 232 179 185 187 194 196 197 203 210 210 211 212 215 218 218 216 215 217 221 222 225 227 232 236 239 242 247 254 260 268 290 298 296 310 323 322 301 302
144 162 58 135 153 188 188 254 213 243 262 214 204 197 195 194 195 197 204 211 213 213 214 216 219 218 219 220 221 223 225 226 228 233 237 241 243 245 253 261 268 285 290 286 293 310 313 303 299
185 181 184 206 246 227 187 257 256 244 283 238 232 212 206 203 200 201 201 205 210 214 215 217 218 221 221 222 223 222 226 227 230 233 236 240 243 244 249 258 267 272 282 280 282 298 305 305 297
Height
1495 1496 1498 1498 1503 1500 1506 1507 1501 1507 1507 1509 1513 1514 1517 1520 1524 1533 1529 1532 1535 1538 1540 1542 1543 1545 1546 1547 1547 1548 1548 1548 1548 1549 1550 1550 1549 1549 1549 1549 1548 1549 1548 1548 1548 1548 1549 1549 1549
1497 1497 1499 1498 1500 1509 1511 1503 1506 1505 1507 1511 1513 1517 1520 1525 1524 1527 1530 1532 1536 1539 1541 1543 1544 1546 1547 1548 1549 1549 1550 1550 1550 1551 1551 1551 1551 1550 1550 1550 1550 1550 1550 1551 1551 1551 1551 1551 1551
1498 1499 1500 1499 1504 1508 1512 1503 1505 1507 1509 1511 1516 1519 1523 1527 1527 1529 1532 1534 1538 1540 1542 1544 1546 1547 1549 1550 1551 1551 1552 1553 1552 1552 1552 1553 1552 1552 1552 1552 1552 1552 1552 1553 1553 1553 1553 1553 1554
1499 1501 1502 1506 1506 1498 1500 1502 1504 1507 1510 1511 1515 1521 1526 1528 1530 1532 1534 1537 1539 1542 1544 1545 1547 1548 1550 1551 1553 1554 1554 1555 1555 1554 1554 1554 1554 1555 1555 1554 1554 1554 1554 1555 1555 1554 1554 1554 1555
1501 1501 1505 1509 1508 1498 1497 1502 1505 1507 1509 1513 1515 1524 1527 1531 1533 1534 1536 1539 1541 1543 1545 1547 1549 1550 1552 1553 1554 1555 1556 1557 1557 1556 1556 1556 1556 1556 1556 1555 1555 1556 1557 1556 1556 1555 1555 1556 1555
1501 1500 1510 1515 1508 1500 1500 1502 1505 1509 1511 1514 1517 1521 1529 1531 1534 1536 1539 1541 1543 1545 1547 1548 1550 1552 1553 1555 1556 1558 1559 1559 1559 1558 1558 1558 1558 1557 1557 1557 1558 1558 1559 1558 1557 1556 1557 1557 1555
1499 1502 1509 1508 1507 1503 1501 1503 1506 1510 1513 1515 1517 1523 1529 1532 1535 1537 1540 1543 1544 1546 1548 1550 1551 1553 1555 1556 1558 1560 1560 1561 1560 1560 1559 1560 1559 1558 1558 1559 1559 1559 1560 1558 1557 1557 1558 1557 1556
1497 1499 1506 1504 1505 1505 1501 1504 1506 1508 1512 1515 1517 1521 1527 1530 1534 1537 1540 1543 1545 1547 1549 1551 1553 1554 1556 1558 1560 1561 1562 1562 1562 1560 1562 1560 1560 1560 1560 1561 1560 1560 1560 1560 1558 1559 1559 1558 1557
1497 1506 1511 1502 1505 1499 1500 1503 1507 1508 1511 1515 1518 1519 1523 1527 1533 1537 1540 1544 1546 1547 1550 1551 1554 1556 1558 1560 1561 1563 1564 1564 1563 1562 1562 1562 1562 1561 1562 1562 1561 1561 1562 1562 1560 1560 1560 1560 1559
1501 1507 1497 1490 1494 1493 1496 1500 1505 1509 1513 1516 1518 1519 1524 1528 1533 1537 1540 1544 1546 1548 1551 1553 1556 1558 1560 1562 1563 1564 1565 1566 1565 1564 1564 1564 1564 1564 1565 1564 1564 1564 1564 1562 1563 1562 1563 1562 1562
1500 1502 1486 1484 1491 1494 1498 1503 1504 1508 1514 1512 1514 1518 1522 1528 1533 1537 1540 1544 1547 1550 1552 1554 1557 1560 1562 1563 1564 1565 1566 1567 1567 1566 1566 1566 1566 1566 1567 1566 1566 1566 1566 1566 1565 1565 1564 1564 1564
1498 1489 1486 1484 1486 1493 1498 1501 1504 1507 1509 1511 1515 1519 1521 1526 1531 1536 1540 1544 1547 1551 1554 1555 1559 1561 1563 1565 1566 1567 1568 1569 1569 1568 1568 1568 1569 1568 1568 1568 1567 1568 1568 1567 1567 1566 1566 1566 1566
1494 1484 1482 1485 1487 1494 1498 1504 1507 1509 1509 1511 1515 1521 1524 1529 1532 1538 1542 1545 1548 1551 1555 1557 1560 1562 1564 1565 1567 1568 1569 1571 1571 1570 1570 1570 1571 1570 1570 1570 1569 1569 1568 1568 1568 1567 1567 1567 1567
1489 1485 1483 1486 1490 1495 1498 1503 1506 1510 1509 1512 1516 1520 1525 1528 1532 1538 1542 1545 1548 1552 1555 1558 1560 1563 1565 1567 1568 1569 1571 1572 1572 1572 1572 1572 1572 1572 1572 1572 1571 1570 1569 1568 1568 1568 1568 1568 1567
1487 1489 1486 1490 1492 1495 1497 1506 1506 1507 1510 1512 1519 1521 1526 1531 1534 1537 1541 1546 1549 1552 1555 1558 1561 1563 1565 1568 1569 1570 1572 1573 1573 1574 1574 1573 1574 1574 1574 1573 1573 1571 1569 1568 1568 1568 1568 1568 1568
1491 1492 1504 1493 1493 1497 1498 1514 1505 1507 1508 1514 1516 1521 1527 1531 1534 1538 1541 1547 1549 1553 1555 1558 1561 1563 1566 1568 1570 1572 1573 1574 1575 1575 1576 1576 1576 1576 1575 1575 1574 1572 1571 1570 1569 1568 1567 1567 1568
1501 1510 1503 1500 1492 1494 1498 1507 1502 1505 1507 1511 1516 1517 1522 1529 1533 1537 1541 1546 1550 1553 1556 1558 1561 1563 1566 1568 1571 1572 1574 1575 1576 1577 1578 1578 1578 1577 1577 1577 1576 1575 1573 1571 1571 1570 1569 1567 1568
1509 1507 1503 1503 1496 1496 1501 1501 1502 1503 1504 1506 1510 1515 1517 1522 1527 1533 1539 1544 1549 1553 1555 1558 1561 1563 1565 1568 1570 1572 1574 1576 1577 1578 1579 1579 1579 1579 1579 1578 1577 1576 1574 1572 1572 1571 1570 1569 1569
1497 1502 1505 1498 1492 1496 1497 1499 1499 1500 1505 1508 1509 1511 1515 1514 1521 1529 1536 1541 1546 1550 1553 1556 1559 1562 1564 1566 1570 1572 1574 1575 1577 1578 1579 1579 1580 1580 1580 1580 1578 1577 1576 1575 1574 1573 1572 1571 1571
1497 1502 1504 1495 1491 1496 1498 1495 1492 1495 1494 1495 1499 1505 1508 1515 1518 1524 1531 1536 1541 1546 1549 1553 1556 1560 1563 1566 1570 1572 1574 1575 1577 1578 1579 1579 1580 1580 1581 1580 1579 1578 1578 1576 1574 1574 1574 1573 1573
1499 1504 1503 1502 1494 1492 1495 1499 1492 1493 1495 1499 1499 1500 1502 1506 1511 1518 1524 1529 1536 1540 1544 1549 1553 1557 1561 1565 1568 1571 1573 1575 1576 1577 1578 1579 1580 1581 1581 1580 1580 1579 1579 1577 1576 1575 1574 1574 1573
1505 1492 1494 1495 1504 1519 1495 1524 1493 1489 1492 1494 1496 1496 1499 1501 1506 1513 1517 1523 1528 1534 1541 1546 1550 1554 1558 1562 1566 1569 1571 1573 1575 1577 1579 1579 1581 1581 1582 1581 1581 1580 1579 1577 1576 1575 1575 1574 1573
1494 1487 1492 1494 1503 1505 1504 1518 1494 1486 1493 1488 1484 1487 1490 1494 1500 1503 1509 1516 1523 1530 1535 1542 1547 1551 1555 1559 1563 1567 1569 1572 1574 1576 1578 1579 1580 1581 1582 1581 1581 1581 1580 1579 1577 1576 1575 1574 1574
1481 1488 1497 1505 1511 1530 1502 1509 1497 1487 1478 1472 1473 1477 1482 1487 1493 1499 1505 1512 1519 1526 1532 1537 1543 1548 1552 1556 1560 1563 1567 1570 1572 1575 1576 1578 1579 1581 1581 1581 1580 1580 1580 1579 1577 1576 1576 1575 1574
1485 1503 1531 1529 1534 1528 1493 1507 1482 1465 1460 1457 1460 1463 1469 1478 1487 1493 1498 1505 1513 1519 1526 1532 1538 1544 1548 1552 1557 1560 1564 1567 1570 1573 1575 1576 1578 1580 1580 1580 1579 1580 1579 1579 1577 1576 1576 1575 1574
1486 1495 1525 1534 1535 1517 1498 1507 1477 1453 1448 1449 1450 1452 1461 1469 1477 1484 1490 1497 1505 1513 1520 1527 1533 1539 1544 1548 1552 1556 1560 1564 1567 1570 1573 1574 1576 1578 1579 1579 1579 1580 1579 1579 1578 1577 1576 1575 1574
1484 1498 1488 1507 1515 1521 1505 1481 1459 1449 1445 1444 1445 1449 1456 1463 1469 1475 1484 1491 1498 1505 1513 1520 1527 1533 1538 1543 1548 1552 1556 1559 1562 1567 1569 1572 1574 1576 1577 1577 1578 1579 1578 1578 1578 1577 1576 1575 1574
1471 1477 1501 1517 1523 1528 1511 1498 1481 1456 1449 1447 1447 1448 1451 1459 1467 1474 1478 1484 1492 1499 1506 1515 1521 1527 1532 1538 1542 1546 1550 1554 1558 1562 1565 1568 1571 1573 1574 1575 1576 1576 1576 1577 1577 1576 1575 1573 1572
1477 1483 1492 1495 1506 1513 1517 1489 1456 1450 1443 1444 1444 1444 1447 1451 1457 1464 1470 1477 1484 1492 1500 1507 1514 1521 1526 1532 1536 1540 1545 1549 1553 1556 1560 1563 1567 1569 1571 1572 1573 1574 1574 1575 1575 1574 1573 1572 1572
1462 1471 1475 1494 1503 1506 1505 1469 1442 1442 1441 1442 1439 1440 1446 1449 1454 1461 1468 1475 1479 1484 1491 1497 1504 1512 1518 1525 1530 1534 1539 1544 1547 1550 1554 1558 1561 1564 1567 1568 1569 1570 1571 1572 1572 1572 1571 1571 1570